QPF
0.08 0.07 0.04 0.06 0.09 0.08 0.05 0.05 0.06 0.06 0.04 0.03 0.03 0.04 0.04 0.06 0.07 0.05 0.04 0.04 0.04 0.03 0.03 0.04 0.04 0.05 0.05 0.04 0.03 0.03 0.03 0.07 0.08 0.10 0.09 0.08 0.07 0.06 0.06 0.08 0.09 0.07 0.07
0.04 0.05 0.02 0.04 0.07 0.07 0.05 0.05 0.06 0.05 0.04 0.04 0.03 0.03 0.04 0.07 0.08 0.05 0.04 0.04 0.04 0.04 0.04 0.03 0.04 0.04 0.03 0.02 0.03 0.04 0.04 0.06 0.07 0.07 0.09 0.09 0.08 0.08 0.09 0.10 0.09 0.09 0.08
0.03 0.04 0.02 0.02 0.06 0.09 0.08 0.06 0.07 0.05 0.04 0.04 0.04 0.04 0.05 0.07 0.06 0.06 0.05 0.06 0.05 0.05 0.05 0.04 0.05 0.04 0.04 0.03 0.03 0.04 0.04 0.05 0.05 0.06 0.08 0.11 0.11 0.08 0.08 0.09 0.11 0.14 0.11
0.01 0.03 0.02 0.02 0.03 0.06 0.09 0.08 0.06 0.05 0.04 0.04 0.03 0.03 0.03 0.06 0.06 0.04 0.05 0.06 0.05 0.06 0.06 0.04 0.03 0.04 0.05 0.03 0.03 0.03 0.03 0.04 0.06 0.07 0.10 0.11 0.11 0.06 0.07 0.11 0.14 0.12 0.10
0.01 0.02 0.02 0.02 0.02 0.04 0.05 0.06 0.07 0.07 0.05 0.05 0.04 0.03 0.06 0.11 0.09 0.06 0.05 0.06 0.07 0.07 0.07 0.04 0.03 0.04 0.04 0.03 0.04 0.04 0.04 0.05 0.06 0.06 0.09 0.11 0.13 0.11 0.08 0.10 0.10 0.08 0.09
0.02 0.02 0.01 0.03 0.03 0.04 0.04 0.05 0.08 0.07 0.04 0.04 0.05 0.05 0.11 0.12 0.06 0.06 0.07 0.07 0.07 0.05 0.06 0.05 0.05 0.04 0.06 0.08 0.07 0.06 0.04 0.04 0.06 0.08 0.09 0.11 0.12 0.10 0.06 0.06 0.07 0.08 0.09
0.03 0.02 0.00 0.02 0.03 0.03 0.03 0.03 0.05 0.06 0.04 0.04 0.05 0.06 0.11 0.12 0.09 0.06 0.07 0.07 0.05 0.04 0.05 0.08 0.09 0.06 0.09 0.10 0.07 0.05 0.05 0.06 0.06 0.06 0.08 0.10 0.08 0.07 0.06 0.06 0.07 0.06 0.06
0.03 0.03 0.01 0.01 0.02 0.02 0.03 0.03 0.04 0.04 0.04 0.04 0.04 0.05 0.06 0.07 0.06 0.05 0.05 0.05 0.05 0.05 0.07 0.11 0.11 0.08 0.09 0.07 0.06 0.07 0.07 0.06 0.06 0.05 0.07 0.07 0.07 0.07 0.07 0.07 0.08 0.07 0.07
0.02 0.03 0.02 0.02 0.01 0.02 0.02 0.02 0.03 0.03 0.03 0.03 0.04 0.04 0.03 0.03 0.03 0.04 0.04 0.05 0.04 0.04 0.05 0.05 0.06 0.07 0.07 0.06 0.06 0.07 0.06 0.05 0.06 0.08 0.07 0.06 0.07 0.07 0.07 0.09 0.09 0.06 0.07
0.01 0.04 0.03 0.01 0.01 0.02 0.01 0.01 0.01 0.02 0.02 0.02 0.02 0.02 0.03 0.03 0.03 0.03 0.03 0.05 0.05 0.04 0.04 0.04 0.04 0.04 0.04 0.05 0.06 0.06 0.05 0.05 0.05 0.04 0.08 0.09 0.08 0.08 0.09 0.11 0.08 0.05 0.04
0.01 0.03 0.03 0.02 0.02 0.03 0.01 0.00 0.01 0.02 0.02 0.02 0.01 0.03 0.06 0.06 0.04 0.03 0.03 0.03 0.04 0.03 0.04 0.04 0.04 0.04 0.04 0.04 0.05 0.05 0.05 0.05 0.05 0.05 0.07 0.11 0.11 0.09 0.10 0.11 0.08 0.05 0.04
0.02 0.02 0.02 0.02 0.03 0.03 0.03 0.01 0.02 0.02 0.03 0.03 0.02 0.04 0.06 0.06 0.05 0.03 0.02 0.02 0.03 0.03 0.04 0.04 0.03 0.03 0.03 0.03 0.03 0.04 0.06 0.04 0.03 0.04 0.06 0.09 0.09 0.08 0.06 0.07 0.07 0.07 0.06
0.01 0.01 0.02 0.02 0.03 0.02 0.03 0.02 0.03 0.04 0.04 0.02 0.02 0.03 0.02 0.03 0.03 0.02 0.02 0.02 0.03 0.03 0.03 0.03 0.02 0.02 0.02 0.03 0.03 0.04 0.04 0.02 0.03 0.03 0.05 0.06 0.06 0.07 0.05 0.06 0.07 0.07 0.07
0.02 0.03 0.02 0.01 0.02 0.02 0.01 0.01 0.01 0.02 0.02 0.01 0.02 0.03 0.03 0.03 0.03 0.03 0.03 0.03 0.03 0.03 0.04 0.04 0.03 0.02 0.02 0.03 0.02 0.02 0.01 0.01 0.02 0.03 0.04 0.05 0.06 0.08 0.07 0.07 0.08 0.07 0.06
0.02 0.01 0.01 0.01 0.01 0.01 0.01 0.01 0.01 0.02 0.02 0.01 0.01 0.02 0.03 0.03 0.03 0.03 0.03 0.04 0.04 0.04 0.03 0.04 0.03 0.03 0.03 0.03 0.02 0.02 0.01 0.02 0.02 0.03 0.03 0.03 0.05 0.06 0.08 0.07 0.05 0.05 0.05
0.05 0.03 0.02 0.02 0.02 0.01 0.01 0.00 0.00 0.01 0.02 0.02 0.01 0.02 0.01 0.02 0.02 0.02 0.03 0.04 0.03 0.02 0.01 0.02 0.03 0.03 0.03 0.03 0.02 0.01 0.01 0.02 0.02 0.02 0.03 0.03 0.03 0.04 0.05 0.06 0.05 0.05 0.05
0.05 0.05 0.04 0.03 0.02 0.01 0.01 0.01 0.01 0.01 0.02 0.03 0.02 0.01 0.01 0.01 0.01 0.01 0.01 0.01 0.02 0.01 0.01 0.01 0.01 0.01 0.02 0.02 0.02 0.01 0.01 0.00 0.01 0.02 0.03 0.04 0.03 0.02 0.02 0.03 0.05 0.06 0.08
0.03 0.04 0.03 0.03 0.03 0.02 0.02 0.02 0.02 0.02 0.02 0.02 0.02 0.02 0.02 0.01 0.02 0.02 0.01 0.00 0.01 0.00 0.01 0.01 0.01 0.02 0.02 0.02 0.02 0.01 0.01 0.01 0.00 0.01 0.02 0.03 0.03 0.03 0.01 0.01 0.03 0.08 0.10
0.04 0.04 0.04 0.02 0.03 0.03 0.02 0.02 0.02 0.02 0.02 0.02 0.03 0.02 0.02 0.01 0.01 0.02 0.02 0.01 0.01 0.01 0.01 0.01 0.02 0.03 0.03 0.03 0.01 0.01 0.01 0.01 0.01 0.01 0.01 0.02 0.02 0.03 0.03 0.02 0.03 0.06 0.10
0.04 0.04 0.03 0.02 0.02 0.02 0.02 0.03 0.03 0.02 0.02 0.02 0.03 0.02 0.01 0.02 0.01 0.01 0.02 0.01 0.01 0.01 0.02 0.01 0.01 0.02 0.02 0.03 0.02 0.01 0.01 0.01 0.01 0.01 0.01 0.01 0.01 0.02 0.03 0.05 0.07 0.06 0.08
0.02 0.03 0.04 0.04 0.03 0.02 0.02 0.04 0.03 0.03 0.02 0.03 0.02 0.01 0.01 0.02 0.02 0.02 0.02 0.02 0.01 0.01 0.01 0.01 0.01 0.01 0.01 0.01 0.02 0.02 0.02 0.01 0.02 0.01 0.01 0.01 0.01 0.02 0.02 0.04 0.09 0.09 0.07
0.02 0.03 0.04 0.05 0.04 0.02 0.03 0.03 0.02 0.02 0.02 0.02 0.02 0.02 0.01 0.01 0.02 0.02 0.03 0.04 0.02 0.02 0.02 0.02 0.02 0.02 0.01 0.01 0.02 0.03 0.03 0.03 0.03 0.03 0.02 0.02 0.01 0.01 0.02 0.02 0.04 0.07 0.07
0.02 0.03 0.03 0.04 0.04 0.03 0.03 0.03 0.02 0.02 0.03 0.03 0.02 0.03 0.02 0.02 0.01 0.02 0.04 0.06 0.06 0.04 0.02 0.01 0.01 0.02 0.03 0.03 0.02 0.03 0.04 0.05 0.05 0.04 0.04 0.02 0.02 0.02 0.02 0.02 0.02 0.04 0.05
0.01 0.03 0.04 0.05 0.07 0.05 0.03 0.03 0.03 0.04 0.04 0.03 0.02 0.01 0.01 0.01 0.01 0.01 0.03 0.04 0.04 0.04 0.02 0.01 0.01 0.02 0.03 0.05 0.04 0.03 0.04 0.04 0.05 0.06 0.05 0.04 0.02 0.02 0.01 0.01 0.02 0.02 0.04
0.01 0.01 0.02 0.04 0.07 0.08 0.07 0.06 0.05 0.04 0.04 0.03 0.02 0.02 0.01 0.01 0.00 0.00 0.01 0.01 0.01 0.02 0.02 0.01 0.01 0.02 0.03 0.03 0.04 0.03 0.03 0.03 0.03 0.04 0.05 0.04 0.03 0.02 0.01 0.01 0.02 0.02 0.03
0.01 0.01 0.01 0.04 0.05 0.05 0.06 0.06 0.07 0.06 0.05 0.04 0.03 0.03 0.02 0.02 0.02 0.01 0.01 0.03 0.02 0.02 0.02 0.01 0.02 0.03 0.03 0.03 0.03 0.03 0.03 0.03 0.04 0.04 0.03 0.03 0.02 0.02 0.01 0.01 0.01 0.02 0.03
MSLP
1011.57 1011.19 1010.87 1010.68 1010.62 1010.66 1010.76 1010.86 1010.92 1010.92 1010.87 1010.82 1010.78 1010.80 1010.88 1011.01 1011.18 1011.33 1011.44 1011.49 1011.49 1011.45 1011.40 1011.37 1011.37 1011.41 1011.46 1011.52 1011.56 1011.57 1011.54 1011.50 1011.47 1011.46 1011.49 1011.57 1011.67 1011.78 1011.87 1011.92 1011.93 1011.90 1011.83
1011.62 1011.28 1011.02 1010.88 1010.87 1010.96 1011.08 1011.18 1011.21 1011.18 1011.09 1010.99 1010.93 1010.94 1011.02 1011.17 1011.35 1011.52 1011.65 1011.71 1011.72 1011.69 1011.65 1011.63 1011.64 1011.68 1011.74 1011.80 1011.83 1011.83 1011.81 1011.76 1011.73 1011.74 1011.78 1011.87 1011.98 1012.09 1012.18 1012.22 1012.22 1012.17 1012.10
1011.56 1011.28 1011.09 1011.03 1011.10 1011.24 1011.39 1011.50 1011.53 1011.47 1011.35 1011.22 1011.13 1011.11 1011.18 1011.31 1011.49 1011.66 1011.78 1011.86 1011.87 1011.86 1011.83 1011.82 1011.85 1011.90 1011.97 1012.03 1012.06 1012.06 1012.04 1012.01 1012.00 1012.02 1012.10 1012.21 1012.33 1012.45 1012.54 1012.58 1012.57 1012.51 1012.43
1011.41 1011.20 1011.10 1011.13 1011.27 1011.47 1011.66 1011.79 1011.82 1011.75 1011.61 1011.46 1011.34 1011.30 1011.34 1011.46 1011.62 1011.77 1011.89 1011.96 1011.99 1011.98 1011.98 1011.99 1012.04 1012.10 1012.17 1012.23 1012.26 1012.27 1012.26 1012.25 1012.27 1012.33 1012.43 1012.57 1012.72 1012.85 1012.94 1012.98 1012.96 1012.90 1012.83
1011.21 1011.07 1011.05 1011.16 1011.38 1011.64 1011.87 1012.02 1012.06 1011.98 1011.84 1011.68 1011.55 1011.49 1011.52 1011.62 1011.76 1011.90 1012.01 1012.08 1012.12 1012.14 1012.16 1012.19 1012.25 1012.33 1012.40 1012.45 1012.48 1012.49 1012.48 1012.49 1012.54 1012.64 1012.79 1012.96 1013.13 1013.27 1013.36 1013.39 1013.37 1013.32 1013.25
1010.98 1010.92 1010.97 1011.15 1011.42 1011.72 1011.98 1012.14 1012.19 1012.13 1012.00 1011.85 1011.73 1011.68 1011.71 1011.81 1011.94 1012.07 1012.18 1012.26 1012.31 1012.36 1012.40 1012.46 1012.53 1012.61 1012.67 1012.71 1012.73 1012.72 1012.72 1012.75 1012.82 1012.95 1013.13 1013.33 1013.52 1013.67 1013.77 1013.79 1013.77 1013.71 1013.65
1010.78 1010.77 1010.87 1011.10 1011.40 1011.72 1011.98 1012.16 1012.22 1012.18 1012.08 1011.96 1011.88 1011.86 1011.91 1012.02 1012.16 1012.30 1012.42 1012.52 1012.59 1012.66 1012.72 1012.80 1012.88 1012.95 1013.00 1013.02 1013.01 1012.98 1012.97 1013.00 1013.09 1013.25 1013.45 1013.68 1013.88 1014.04 1014.13 1014.14 1014.11 1014.05 1013.99
1010.61 1010.64 1010.78 1011.03 1011.33 1011.64 1011.90 1012.07 1012.14 1012.13 1012.08 1012.02 1012.00 1012.04 1012.14 1012.28 1012.44 1012.60 1012.73 1012.84 1012.93 1013.02 1013.10 1013.19 1013.28 1013.34 1013.36 1013.35 1013.31 1013.26 1013.23 1013.25 1013.35 1013.52 1013.74 1013.98 1014.19 1014.35 1014.43 1014.44 1014.39 1014.33 1014.27
1010.50 1010.56 1010.72 1010.96 1011.24 1011.52 1011.75 1011.91 1012.00 1012.03 1012.03 1012.05 1012.11 1012.22 1012.38 1012.57 1012.76 1012.93 1013.08 1013.20 1013.30 1013.40 1013.50 1013.59 1013.67 1013.72 1013.72 1013.68 1013.61 1013.53 1013.49 1013.50 1013.59 1013.77 1013.99 1014.24 1014.45 1014.61 1014.68 1014.68 1014.63 1014.55 1014.49
1010.44 1010.52 1010.67 1010.89 1011.14 1011.38 1011.58 1011.72 1011.82 1011.90 1011.97 1012.08 1012.23 1012.42 1012.65 1012.88 1013.10 1013.28 1013.43 1013.55 1013.66 1013.76 1013.86 1013.95 1014.03 1014.07 1014.06 1014.00 1013.91 1013.81 1013.75 1013.76 1013.85 1014.02 1014.25 1014.49 1014.70 1014.86 1014.92 1014.91 1014.85 1014.77 1014.69
1010.41 1010.51 1010.66 1010.85 1011.05 1011.25 1011.41 1011.55 1011.66 1011.79 1011.94 1012.13 1012.37 1012.64 1012.93 1013.20 1013.43 1013.62 1013.76 1013.87 1013.96 1014.06 1014.15 1014.25 1014.32 1014.36 1014.36 1014.30 1014.21 1014.11 1014.05 1014.06 1014.14 1014.31 1014.53 1014.77 1014.98 1015.12 1015.19 1015.18 1015.11 1015.02 1014.93
1010.41 1010.53 1010.67 1010.83 1010.99 1011.14 1011.28 1011.41 1011.55 1011.72 1011.93 1012.21 1012.52 1012.86 1013.20 1013.49 1013.74 1013.92 1014.05 1014.14 1014.21 1014.30 1014.39 1014.49 1014.57 1014.63 1014.64 1014.61 1014.54 1014.47 1014.42 1014.43 1014.52 1014.68 1014.89 1015.11 1015.31 1015.45 1015.51 1015.50 1015.43 1015.34 1015.24
1010.44 1010.56 1010.70 1010.83 1010.96 1011.08 1011.19 1011.32 1011.48 1011.70 1011.98 1012.31 1012.69 1013.08 1013.44 1013.76 1014.01 1014.18 1014.29 1014.36 1014.43 1014.50 1014.60 1014.71 1014.81 1014.90 1014.95 1014.96 1014.93 1014.89 1014.88 1014.90 1014.99 1015.14 1015.33 1015.53 1015.71 1015.84 1015.90 1015.90 1015.84 1015.75 1015.65
1010.48 1010.61 1010.74 1010.85 1010.95 1011.05 1011.15 1011.29 1011.48 1011.73 1012.05 1012.44 1012.85 1013.27 1013.66 1013.98 1014.22 1014.40 1014.50 1014.57 1014.64 1014.72 1014.82 1014.95 1015.09 1015.22 1015.31 1015.37 1015.40 1015.41 1015.43 1015.47 1015.56 1015.69 1015.85 1016.02 1016.18 1016.29 1016.35 1016.35 1016.30 1016.23 1016.13
1010.53 1010.67 1010.78 1010.88 1010.97 1011.06 1011.16 1011.32 1011.53 1011.81 1012.16 1012.57 1013.00 1013.43 1013.82 1014.15 1014.40 1014.58 1014.70 1014.79 1014.88 1014.98 1015.11 1015.27 1015.44 1015.61 1015.75 1015.87 1015.95 1016.01 1016.06 1016.12 1016.20 1016.31 1016.43 1016.56 1016.68 1016.76 1016.81 1016.82 1016.80 1016.74 1016.66
1010.60 1010.74 1010.84 1010.93 1011.01 1011.10 1011.22 1011.40 1011.63 1011.93 1012.30 1012.70 1013.14 1013.56 1013.94 1014.28 1014.55 1014.76 1014.91 1015.05 1015.18 1015.32 1015.48 1015.67 1015.87 1016.07 1016.26 1016.42 1016.55 1016.65 1016.73 1016.81 1016.88 1016.95 1017.03 1017.11 1017.17 1017.22 1017.26 1017.27 1017.27 1017.25 1017.20
1010.68 1010.80 1010.90 1010.98 1011.07 1011.18 1011.34 1011.54 1011.79 1012.10 1012.46 1012.86 1013.26 1013.66 1014.04 1014.38 1014.67 1014.92 1015.13 1015.33 1015.51 1015.71 1015.91 1016.13 1016.35 1016.57 1016.78 1016.98 1017.14 1017.28 1017.38 1017.47 1017.53 1017.58 1017.61 1017.63 1017.64 1017.65 1017.66 1017.68 1017.69 1017.71 1017.70
1010.75 1010.87 1010.96 1011.05 1011.16 1011.31 1011.50 1011.74 1012.02 1012.33 1012.68 1013.04 1013.40 1013.76 1014.12 1014.45 1014.77 1015.07 1015.35 1015.61 1015.87 1016.11 1016.35 1016.59 1016.83 1017.05 1017.27 1017.48 1017.67 1017.83 1017.97 1018.07 1018.13 1018.15 1018.14 1018.11 1018.07 1018.04 1018.02 1018.03 1018.07 1018.12 1018.15
1010.81 1010.92 1011.02 1011.13 1011.28 1011.47 1011.71 1011.99 1012.30 1012.62 1012.94 1013.26 1013.57 1013.89 1014.20 1014.53 1014.86 1015.20 1015.55 1015.88 1016.20 1016.49 1016.76 1017.01 1017.24 1017.46 1017.67 1017.88 1018.09 1018.28 1018.44 1018.57 1018.64 1018.66 1018.63 1018.57 1018.49 1018.42 1018.37 1018.37 1018.42 1018.49 1018.57
1010.83 1010.96 1011.07 1011.21 1011.40 1011.65 1011.95 1012.29 1012.63 1012.95 1013.26 1013.53 1013.79 1014.04 1014.31 1014.61 1014.95 1015.32 1015.71 1016.10 1016.46 1016.79 1017.08 1017.33 1017.54 1017.74 1017.94 1018.15 1018.37 1018.59 1018.79 1018.96 1019.07 1019.12 1019.10 1019.02 1018.91 1018.81 1018.74 1018.72 1018.77 1018.86 1018.97
1010.81 1010.95 1011.09 1011.27 1011.51 1011.82 1012.19 1012.58 1012.97 1013.31 1013.60 1013.84 1014.04 1014.23 1014.45 1014.71 1015.03 1015.41 1015.82 1016.25 1016.64 1016.99 1017.29 1017.52 1017.71 1017.89 1018.07 1018.28 1018.51 1018.77 1019.03 1019.26 1019.43 1019.53 1019.54 1019.48 1019.37 1019.25 1019.16 1019.12 1019.15 1019.24 1019.36
1010.74 1010.91 1011.07 1011.28 1011.57 1011.95 1012.38 1012.84 1013.28 1013.65 1013.94 1014.16 1014.31 1014.45 1014.61 1014.83 1015.12 1015.49 1015.90 1016.33 1016.74 1017.10 1017.38 1017.60 1017.76 1017.91 1018.08 1018.29 1018.55 1018.85 1019.17 1019.48 1019.73 1019.90 1019.96 1019.94 1019.85 1019.73 1019.62 1019.56 1019.56 1019.63 1019.75
1010.62 1010.81 1010.99 1011.22 1011.55 1011.98 1012.48 1013.00 1013.49 1013.91 1014.22 1014.43 1014.57 1014.67 1014.78 1014.96 1015.21 1015.55 1015.95 1016.37 1016.77 1017.12 1017.39 1017.59 1017.73 1017.86 1018.02 1018.23 1018.51 1018.85 1019.24 1019.62 1019.96 1020.21 1020.35 1020.38 1020.32 1020.22 1020.10 1020.01 1019.98 1020.01 1020.10
1010.47 1010.66 1010.84 1011.08 1011.43 1011.89 1012.44 1013.02 1013.57 1014.04 1014.40 1014.63 1014.77 1014.85 1014.94 1015.08 1015.30 1015.61 1015.98 1016.38 1016.77 1017.10 1017.35 1017.54 1017.66 1017.78 1017.92 1018.13 1018.43 1018.80 1019.24 1019.69 1020.10 1020.42 1020.64 1020.73 1020.72 1020.63 1020.51 1020.40 1020.33 1020.32 1020.36
1010.29 1010.48 1010.64 1010.87 1011.22 1011.69 1012.26 1012.88 1013.49 1014.02 1014.43 1014.71 1014.87 1014.97 1015.06 1015.18 1015.38 1015.66 1016.00 1016.38 1016.75 1017.07 1017.31 1017.48 1017.59 1017.70 1017.83 1018.03 1018.33 1018.71 1019.17 1019.66 1020.12 1020.51 1020.79 1020.94 1020.97 1020.91 1020.80 1020.67 1020.56 1020.50 1020.49
1010.10 1010.28 1010.42 1010.61 1010.93 1011.38 1011.96 1012.61 1013.26 1013.85 1014.32 1014.65 1014.87 1015.00 1015.11 1015.24 1015.42 1015.69 1016.02 1016.38 1016.73 1017.04 1017.27 1017.44 1017.54 1017.63 1017.75 1017.94 1018.22 1018.59 1019.04 1019.54 1020.02 1020.44 1020.76 1020.96 1021.04 1021.01 1020.90 1020.77 1020.63 1020.53 1020.47
Thickness
5775 5776 5775 5774 5774 5774 5774 5773 5772 5771 5771 5770 5770 5770 5769 5769 5769 5768 5768 5767 5767 5767 5767 5766 5766 5767 5767 5766 5766 5766 5766 5766 5766 5766 5766 5766 5766 5766 5766 5766 5766 5766 5766
5777 5775 5773 5772 5772 5773 5773 5772 5770 5769 5768 5767 5767 5767 5767 5767 5766 5765 5765 5764 5764 5764 5764 5763 5763 5764 5764 5763 5763 5763 5763 5764 5764 5764 5764 5763 5764 5763 5763 5764 5764 5764 5764
5776 5773 5771 5770 5769 5770 5770 5769 5767 5766 5765 5765 5764 5764 5764 5764 5763 5762 5761 5761 5761 5761 5760 5760 5760 5760 5760 5760 5760 5760 5760 5761 5761 5761 5761 5761 5761 5761 5761 5761 5761 5761 5761
5775 5772 5769 5767 5767 5766 5766 5765 5764 5763 5762 5762 5761 5761 5761 5761 5760 5759 5758 5758 5758 5757 5757 5757 5757 5757 5757 5757 5757 5757 5757 5758 5758 5758 5758 5758 5758 5757 5758 5758 5758 5758 5758
5773 5769 5766 5765 5764 5764 5763 5762 5761 5760 5759 5759 5759 5758 5758 5759 5758 5756 5755 5755 5754 5754 5754 5754 5753 5754 5753 5753 5753 5754 5754 5755 5755 5755 5754 5754 5754 5754 5754 5755 5755 5755 5755
5770 5766 5763 5762 5761 5761 5760 5759 5758 5757 5756 5756 5755 5755 5756 5757 5756 5753 5752 5751 5751 5750 5750 5750 5750 5750 5750 5750 5750 5751 5751 5752 5752 5751 5751 5750 5750 5750 5750 5751 5751 5751 5751
5767 5764 5760 5759 5758 5757 5756 5756 5755 5754 5753 5752 5752 5751 5752 5752 5751 5749 5748 5747 5747 5746 5746 5746 5746 5746 5746 5746 5747 5748 5748 5749 5748 5748 5747 5746 5746 5746 5746 5747 5747 5747 5747
5765 5762 5758 5756 5755 5754 5753 5752 5751 5750 5749 5748 5748 5747 5747 5747 5746 5744 5743 5743 5742 5742 5742 5742 5742 5743 5743 5743 5743 5744 5745 5745 5745 5744 5743 5743 5743 5743 5742 5743 5743 5743 5743
5763 5760 5756 5754 5752 5750 5749 5748 5747 5746 5746 5745 5744 5743 5743 5742 5741 5740 5739 5739 5738 5738 5738 5738 5738 5739 5739 5739 5740 5740 5740 5740 5740 5740 5739 5738 5738 5738 5738 5738 5738 5739 5739
5760 5758 5756 5753 5750 5748 5746 5745 5744 5743 5742 5741 5740 5739 5738 5738 5737 5736 5735 5734 5734 5734 5734 5734 5734 5735 5735 5736 5736 5736 5736 5736 5736 5735 5734 5733 5733 5733 5733 5733 5733 5733 5734
5756 5756 5754 5752 5750 5747 5745 5742 5741 5740 5739 5738 5737 5736 5735 5734 5733 5732 5731 5730 5730 5730 5730 5731 5731 5731 5732 5732 5733 5733 5733 5732 5731 5730 5729 5729 5729 5729 5728 5728 5728 5728 5728
5749 5751 5751 5749 5748 5745 5743 5740 5739 5737 5736 5735 5735 5733 5733 5732 5730 5728 5726 5726 5726 5727 5727 5728 5728 5729 5729 5730 5730 5730 5728 5727 5727 5726 5724 5725 5725 5724 5724 5723 5723 5723 5723
5747 5748 5748 5746 5745 5743 5741 5739 5737 5735 5733 5733 5732 5731 5730 5729 5727 5725 5723 5723 5723 5723 5724 5725 5725 5726 5726 5727 5727 5726 5725 5723 5722 5720 5720 5720 5720 5720 5719 5719 5719 5718 5718
5744 5743 5744 5744 5742 5741 5738 5736 5734 5732 5730 5729 5728 5727 5726 5725 5724 5723 5721 5721 5721 5721 5721 5721 5722 5723 5723 5723 5723 5723 5721 5719 5717 5716 5715 5715 5715 5715 5715 5715 5715 5714 5713
5742 5740 5740 5741 5740 5738 5735 5733 5731 5728 5726 5725 5724 5723 5722 5721 5720 5720 5718 5718 5718 5718 5718 5718 5718 5718 5718 5718 5718 5718 5716 5715 5713 5712 5710 5710 5711 5711 5711 5711 5710 5709 5709
5741 5739 5739 5738 5737 5735 5731 5729 5726 5724 5722 5721 5720 5719 5718 5717 5716 5716 5714 5714 5714 5715 5714 5714 5714 5713 5713 5713 5712 5712 5712 5710 5709 5707 5706 5705 5705 5705 5706 5705 5705 5704 5704
5740 5739 5736 5735 5734 5731 5728 5725 5723 5721 5719 5717 5716 5715 5714 5714 5713 5712 5711 5710 5711 5711 5711 5710 5710 5710 5708 5708 5707 5707 5707 5706 5705 5704 5703 5702 5700 5700 5700 5700 5699 5699 5698
5738 5736 5734 5733 5730 5727 5724 5722 5720 5718 5715 5713 5712 5711 5711 5710 5709 5707 5707 5706 5707 5707 5707 5706 5705 5704 5703 5702 5702 5702 5701 5701 5701 5700 5699 5698 5696 5695 5695 5694 5694 5693 5693
5736 5734 5731 5729 5726 5724 5721 5719 5716 5714 5712 5710 5709 5708 5707 5707 5705 5704 5703 5703 5703 5703 5702 5702 5701 5700 5697 5697 5697 5697 5697 5696 5696 5696 5695 5694 5693 5691 5690 5689 5688 5688 5687
5735 5733 5729 5726 5724 5721 5718 5715 5712 5710 5709 5707 5706 5704 5704 5703 5702 5700 5699 5699 5699 5698 5697 5697 5695 5696 5695 5694 5694 5693 5692 5692 5692 5691 5690 5690 5689 5688 5687 5685 5684 5683 5682
5731 5729 5725 5722 5720 5717 5713 5709 5706 5704 5704 5703 5702 5702 5701 5700 5699 5697 5696 5696 5695 5694 5693 5692 5691 5690 5690 5691 5688 5685 5686 5688 5687 5686 5686 5686 5685 5684 5683 5682 5680 5679 5677
5726 5724 5722 5719 5717 5714 5711 5708 5705 5703 5701 5700 5699 5699 5698 5697 5696 5695 5693 5692 5692 5690 5689 5689 5688 5685 5686 5688 5684 5679 5675 5676 5679 5682 5681 5680 5680 5680 5679 5678 5677 5675 5673
5722 5721 5720 5717 5714 5712 5709 5706 5703 5701 5698 5695 5694 5694 5695 5694 5693 5692 5691 5690 5689 5688 5686 5685 5685 5683 5680 5683 5683 5678 5671 5666 5669 5673 5675 5676 5675 5675 5674 5674 5673 5671 5669
5721 5720 5718 5715 5712 5710 5708 5703 5699 5695 5691 5691 5692 5691 5692 5692 5691 5690 5689 5688 5687 5686 5684 5683 5683 5682 5679 5676 5678 5679 5677 5673 5666 5663 5668 5671 5671 5671 5670 5670 5668 5667 5665
5718 5716 5714 5712 5710 5708 5706 5702 5698 5694 5692 5691 5690 5689 5688 5689 5688 5688 5687 5686 5685 5684 5683 5682 5681 5680 5678 5676 5674 5673 5673 5672 5671 5663 5659 5662 5665 5666 5667 5666 5664 5663 5661
5714 5712 5710 5707 5706 5705 5703 5700 5696 5692 5690 5687 5686 5684 5684 5685 5685 5685 5685 5684 5683 5682 5681 5680 5679 5678 5677 5676 5674 5673 5670 5667 5665 5663 5659 5658 5658 5661 5663 5662 5661 5659 5658